Lid_Strength_Index
2 2 1 1 0 0 0 0 -0 -0 -0 -1 -1 -1 -1 -1 -1 -1 -2 -1 -1 -1 -1 0 0 1 2 2 2 2 3 4
2 1 1 1 1 1 0 0 0 -0 0 1 1 1 0 -0 -1 -0 -1 -0 0 -1 0 1 1 2 2 3 2 3 4 4
3 2 2 1 1 1 1 1 0 0 0 -0 -0 0 -0 -0 1 1 1 1 1 1 0 1 2 3 3 3 3 4 4 3
4 3 3 2 2 1 1 1 0 0 -0 -0 -0 -0 1 2 3 3 2 2 2 2 1 2 2 3 4 3 3 3 5 3
4 4 3 2 2 1 1 1 1 0 -0 0 1 1 2 1 2 2 3 3 3 3 2 2 2 3 4 3 2 3 2 3
4 4 3 2 2 2 1 1 1 1 0 0 1 1 1 0 1 3 3 3 3 4 3 3 3 3 3 3 2 2 2 3
3 3 2 2 2 2 1 1 1 1 0 0 1 1 1 1 2 3 3 4 4 4 4 4 3 3 3 2 2 2 2 3
4 4 3 3 3 2 2 2 2 1 0 1 0 0 0 1 2 2 3 4 6 6 5 5 4 3 4 3 2 3 3 3
4 3 3 3 2 2 2 2 2 1 1 1 0 0 0 1 1 3 4 5 6 6 5 5 5 4 4 3 3 3 3 4
4 3 3 2 2 3 2 2 2 2 2 2 2 1 2 3 4 5 6 6 8 7 6 6 5 5 5 4 5 5 5 6
5 4 3 2 2 2 2 2 2 2 3 3 4 4 4 4 5 6 7 8 8 7 6 7 6 6 5 5 6 6 7 7
5 3 3 3 2 2 2 2 2 2 2 3 4 4 5 6 6 7 8 8 8 8 7 7 7 7 6 6 7 8 8 8
5 5 3 4 3 3 2 2 2 3 4 4 5 5 6 7 8 8 7 8 8 8 7 8 8 8 7 7 8 8 8 9
5 4 5 5 5 4 3 3 4 4 5 5 6 6 7 8 8 8 8 8 8 7 8 8 8 8 7 7 8 8 8 9
6 5 5 5 5 4 3 3 3 4 4 5 7 8 7 7 7 8 8 7 8 8 8 8 8 8 8 8 9 9 9 9
7 6 5 5 5 5 5 3 3 3 4 5 6 7 7 8 7 9 8 8 8 8 8 8 8 8 8 8 8 8 9 9
8 7 6 6 5 5 4 4 2 2 3 4 5 7 7 8 9 8 7 8 7 7 8 8 8 8 12 11 9 9 9 9
9 8 7 6 5 4 3 3 4 2 2 3 5 7 8 8 9 9 8 8 8 6 6 6 7 7 12 11 12 9 9 9
9 9 8 6 5 4 2 3 3 2 2 3 4 6 8 9 10 9 9 8 7 6 6 6 7 8 12 12 13 8 9 9